WS Maaseik 1 Meer informatie WS Maaseik 1


WS Maaseik 2 Meer informatie WS Maaseik 2


Regen radar Meer informatie rain snow radar


Bezoek onze andere website:

Vorige versie
weerstation Maaseik


Bezoek ook eens deze sites:

Weerstation Geleen



Het weer levert geen direct gevaar op.    Er zijn geen waarschuwingen afgegeven.

15 daagse weersverwachting Namur (BE)

  • Overzicht
  • Per uur
  • 15 dagen
  • Extra
  • Vergelijk
  • Kaarten
  • Dagkaart
  • Meer »
  • Info
  • Statistieken
  • Directe link
    Temp 6h Neerslag Wind  
 06:16     21:17    Daglengte: 15:01 Vandaag
20:00
20°
 
2
 06:18     21:16    Daglengte: 14:58 Morgen
02:00
16°
1.3 mm
5
warningclass
08:00
16°
1.8 mm
5
14:00
18°
4.6 mm
7
20:00
18°
 
4
 06:19     21:14    Daglengte: 14:55 Zaterdag 07 Aug
02:00
15°
 
2
08:00
15°
 
3
14:00
19°
2.4 mm
4
20:00
18°
14.0 mm
4
 06:21     21:12    Daglengte: 14:51 Zondag 08 Aug
02:00
14°
4.0 mm
5
08:00
14°
15.6 mm
6
Locatie info
Region: Wallonien
Latitude: 50.4657°N
Longitude: 4.8618°E
88 masl
Postcode: 5000
Temp/Neerslag /Baro Onweer/Dauwpunt
    Temp Baro 1h Neerslag Dauwpunt Wind UV Bewolking  
 06:16     21:17    Daglengte: 15:01 Vandaag
15:00
21°
1008.1 hPa
47%
13.4°
2
Windvlaag: 3.1 m/s
79%
16:00
21°
1007.2 hPa
15%
13.4°
2
Windvlaag: 4.2 m/s
22%
17:00
21°
1006.7 hPa
13%
13.5°
2
Windvlaag: 4.3 m/s
19%
18:00
21°
1006.4 hPa
13%
12.8°
3
Windvlaag: 4.5 m/s
25%
19:00
21°
1006.0 hPa
14%
12.9°
2
Windvlaag: 4.7 m/s
30%
20:00
20°
1005.9 hPa
14%
13.1°
2
Windvlaag: 4.8 m/s
18%
21:00
19°
1005.6 hPa
14%
13.9°
2
Windvlaag: 4.8 m/s
13%
22:00
18°
1005.5 hPa
23%
13.8°
3
Windvlaag: 6 m/s
78%
23:00
17°
1005.3 hPa
82%
13.5°
4
Windvlaag: 7.5 m/s
77%
 06:18     21:16    Daglengte: 14:58 Morgen
00:00
17°
1004.6 hPa
76%
13.5°
4
Windvlaag: 8.9 m/s
65%
01:00
17°
1003.9 hPa
22%
13.5°
4
Windvlaag: 9.1 m/s
78%
02:00
16°
1003.4 hPa 1.3 mm
82%
13.3°
5
Windvlaag: 9.9 m/s
86% warningclass
03:00
16°
1002.8 hPa
82%
14.0°
4
Windvlaag: 9.7 m/s
62%
04:00
16°
1002.4 hPa
23%
14.7°
5
Windvlaag: 9 m/s
56%
05:00
16°
1002.1 hPa
80%
14.4°
4
Windvlaag: 8.3 m/s
66%
06:00
16°
1002.1 hPa 0.8 mm
82%
14.3°
4
Windvlaag: 7.6 m/s
65%
07:00
16°
1002.6 hPa 1.0 mm
82%
14.2°
4
Windvlaag: 7.2 m/s
70%
08:00
16°
1003.0 hPa
77%
14.1°
5
Windvlaag: 7.5 m/s
60%
09:00
16°
1003.4 hPa 1.0 mm
73%
14.1°
5
Windvlaag: 7.2 m/s
73%
10:00
16°
1003.8 hPa 1.0 mm
78%
14.1°
5
Windvlaag: 8.5 m/s
17%
11:00
17°
1003.9 hPa
31%
14.6°
6
Windvlaag: 8.9 m/s
39%
12:00
18°
1004.2 hPa 1.2 mm
82%
14.9°
6
Windvlaag: 9.3 m/s
19%
13:00
17°
1004.6 hPa 1.4 mm
82%
14.3°
6
Windvlaag: 9.4 m/s
29%
14:00
18°
1004.5 hPa
28%
14.8°
7
Windvlaag: 9.7 m/s
11%
15:00
19°
1004.5 hPa
18%
16.3°
6
Windvlaag: 9.6 m/s
16%
16:00
19°
1004.7 hPa
20%
15.5°
6
Windvlaag: 9 m/s
13%
17:00
19°
1005.0 hPa
20%
15.4°
6
Windvlaag: 7.1 m/s
19%
18:00
18°
1005.0 hPa
19%
13.7°
5
Windvlaag: 7 m/s
49%
19:00
18°
1005.4 hPa
66%
12.9°
4
Windvlaag: 5.6 m/s
27%
20:00
18°
1005.5 hPa
22%
12.6°
4
Windvlaag: 5.1 m/s
18%
21:00
17°
1005.8 hPa
15%
12.6°
3
Windvlaag: 5.1 m/s
23%
22:00
16°
1006.2 hPa
14%
12.3°
3
Windvlaag: 6 m/s
19%
23:00
16°
1006.6 hPa
15%
12.5°
3
Windvlaag: 5.4 m/s
26%
 06:19     21:14    Daglengte: 14:55 Zaterdag 07 Aug
00:00
15°
1006.5 hPa
66%
12.8°
2
Windvlaag: 4.7 m/s
54%
01:00
15°
1006.2 hPa
64%
13.1°
2
Windvlaag: 4.6 m/s
22%
02:00
15°
1006.0 hPa
15%
13.3°
2
Windvlaag: 2.5 m/s
15%
03:00
15°
1005.6 hPa
19%
13.1°
2
Windvlaag: 4 m/s
23%
04:00
15°
1005.5 hPa
62%
13.3°
2
Windvlaag: 4.9 m/s
12%
05:00
14°
1005.1 hPa
14%
13.1°
2
Windvlaag: 6.1 m/s
47%
06:00
14°
1004.8 hPa
14%
13.3°
2
Windvlaag: 5.9 m/s
18%
07:00
14°
1004.8 hPa
14%
13.4°
3
Windvlaag: 6.1 m/s
19%
08:00
15°
1004.8 hPa
17%
13.7°
3
Windvlaag: 6.1 m/s
34%
09:00
16°
1004.6 hPa
14%
14.3°
3
Windvlaag: 6.7 m/s
57%
10:00
17°
1004.3 hPa
14%
14.5°
3
Windvlaag: 6.5 m/s
13%
11:00
18°
1003.7 hPa
21%
12.0°
4
Windvlaag: 6.4 m/s
15%
12:00
19°
1003.3 hPa
21%
14.1°
4
Windvlaag: 6.4 m/s
17%
13:00
19°
1002.8 hPa
22%
14.6°
4
Windvlaag: 5.5 m/s
28%
14:00
19°
1002.5 hPa 2.4 mm
98%
14.7°
4
Windvlaag: 7 m/s
45%
15:00
20°
1002.2 hPa 2.3 mm
100%
12.9°
4
Windvlaag: 7.1 m/s
38%
16:00
20°
1001.6 hPa 2.2 mm
100%
13.0°
4
Windvlaag: 7.1 m/s
91%
17:00
20°
1001.6 hPa 3.3 mm
100%
11.4°
5
Windvlaag: 8.5 m/s
73%
18:00
19°
1001.7 hPa 1.9 mm
100%
9.3°
4
Windvlaag: 7.3 m/s
70%
19:00
18°
1001.7 hPa 1.8 mm
100%
8.4°
4
Windvlaag: 7.9 m/s
55%
20:00
18°
1001.7 hPa 2.5 mm
100%
7.9°
4
Windvlaag: 8.6 m/s
52%
21:00
17°
1002.2 hPa 1.7 mm
93%
10.6°
5
Windvlaag: 9.3 m/s
76%
22:00
16°
1002.8 hPa 2.3 mm
97%
12.7°
4
Windvlaag: 9 m/s
42%
23:00
15°
1003.3 hPa
21%
11.9°
5
Windvlaag: 7.7 m/s
18%
 06:21     21:12    Daglengte: 14:51 Zondag 08 Aug
00:00
15°
1003.6 hPa
21%
12.7°
5
Windvlaag: 8.4 m/s
50%
01:00
15°
1004.0 hPa
21%
13.2°
5
Windvlaag: 9 m/s
74%
02:00
14°
1004.2 hPa
96%
12.5°
5
Windvlaag: 8.3 m/s
97%
03:00
14°
1004.4 hPa
100%
12.1°
6
Windvlaag: 8.5 m/s
78%
04:00
14°
1004.6 hPa
100%
12.5°
6
Windvlaag: 8.5 m/s
69%
05:00
14°
1004.8 hPa
91%
12.8°
6
Windvlaag: 8.4 m/s
58%
06:00
14°
1005.5 hPa
26%
12.5°
6
Windvlaag: 8.4 m/s
42%
07:00
14°
1006.2 hPa
27%
12.4°
6
Windvlaag: 8.8 m/s
61%
08:00
14°
1007.0 hPa
72%
12.5°
6
Windvlaag: 9.5 m/s
62%
09:00
15°
1007.9 hPa
69%
-36.6°
6
Windvlaag: 0 m/s
20%
Temp/Neerslag /Baro Onweer/Dauwpunt
    Temp Baro Neerslag Dauwpunt Wind Bewolking  
 06:16     21:17    Daglengte: 15:01 Vandaag
17:00
21°
1006.7 hPa   13.5°
2
19%
20:00
20°
1005.9 hPa   13.1°
2
18%
23:00
17°
1005.3 hPa   13.5°
4
77%
 06:18     21:16    Daglengte: 14:58 Morgen
02:00
16°
1003.4 hPa 1.3 mm 13.3°
5
86% warningclass
05:00
16°
1002.1 hPa   14.4°
4
66%
08:00
16°
1003.0 hPa 1.8 mm 14.1°
5
60%
11:00
17°
1003.9 hPa 2.0 mm 14.6°
6
39%
14:00
18°
1004.5 hPa 2.5 mm 14.8°
7
11%
17:00
19°
1005.0 hPa   15.4°
6
19%
20:00
18°
1005.5 hPa   12.6°
4
18%
23:00
16°
1006.6 hPa   12.5°
3
26%
 06:19     21:14    Daglengte: 14:55 Zaterdag 07 Aug
02:00
15°
1006.0 hPa   13.3°
2
15%
05:00
14°
1005.1 hPa   13.1°
2
47%
08:00
15°
1004.8 hPa   13.7°
3
34%
11:00
18°
1003.7 hPa   12.0°
4
15%
14:00
19°
1002.5 hPa 2.4 mm 14.7°
4
45%
17:00
20°
1001.6 hPa 7.8 mm 11.4°
5
73%
20:00
18°
1001.7 hPa 6.2 mm 7.9°
4
52%
23:00
15°
1003.3 hPa 4.0 mm 11.9°
5
18%
 06:21     21:12    Daglengte: 14:51 Zondag 08 Aug
02:00
14°
1004.2 hPa   12.5°
5
97%
05:00
14°
1004.8 hPa   12.8°
6
58%
08:00
14°
1007.0 hPa   12.5°
6
62%
11:00
16°
1009.1 hPa   14.0°
6
48%
14:00
19°
1009.9 hPa   14.4°
7
0%
17:00
19°
1012.6 hPa 13.9 mm 13.2°
8
0%
20:00
17°
1013.8 hPa 14.5 mm 12.9°
5
0%
23:00
13°
1015.2 hPa 14.5 mm 11.3°
3
1%
 06:22     21:10    Daglengte: 14:48 Maandag 09 Aug
02:00
13°
1015.6 hPa 14.5 mm 10.6°
4
1%
05:00
13°
1015.1 hPa 14.7 mm 11.1°
4
1%
08:00
13°
1016.1 hPa 15.4 mm 12.3°
6
1%
11:00
16°
1017.7 hPa 15.8 mm 13.2°
6
1%
14:00
18°
1018.6 hPa 16.8 mm 14.0°
7
1%
17:00
19°
1018.8 hPa 17.4 mm 14.3°
6
1%
20:00
17°
1019.7 hPa 18.0 mm 14.0°
4
1%
23:00
14°
1021.0 hPa 18.0 mm 12.7°
3
1%
 06:24     21:09    Daglengte: 14:45 Dinsdag 10 Aug
02:00
13°
1021.7 hPa 18.0 mm 11.9°
3
1%
05:00
12°
1021.7 hPa 18.0 mm 10.8°
3
1%
08:00
13°
1022.4 hPa 18.0 mm 11.7°
3
1%
11:00
18°
1022.5 hPa 18.0 mm 14.2°
4
1%
14:00
21°
1021.6 hPa 18.3 mm 14.1°
3
0%
17:00
21°
1020.9 hPa 18.7 mm 14.8°
3
1%
20:00
19°
1020.5 hPa 18.8 mm 14.5°
2
1%
23:00
16°
1020.9 hPa 18.8 mm 11.8°
2
1%
 06:25     21:07    Daglengte: 14:42 Woensdag 11 Aug
02:00
14°
1020.6 hPa 18.8 mm 11.1°
2
1%
05:00
13°
1019.5 hPa 18.8 mm 10.9°
2
1%
08:00
15°
1019.1 hPa 18.8 mm 12.3°
2
1%
11:00
20°
1018.5 hPa 18.8 mm 14.0°
2
0%
14:00
23°
1017.2 hPa 18.8 mm 15.0°
1
0%
17:00
24°
1015.7 hPa 18.8 mm 15.9°
1
1%
20:00
22°
1015.4 hPa 18.9 mm 16.3°
1
1%
23:00
18°
1015.2 hPa 18.9 mm 15.2°
2
1%
 06:27     21:05    Daglengte: 14:38 Donderdag 12 Aug
02:00
18°
1014.1 hPa 18.9 mm 15.0°
2
1%
05:00
17°
1013.3 hPa 20.4 mm 15.7°
2
1%
08:00
16°
1014.0 hPa 25.0 mm 16.3°
2
1%
11:00
18°
1015.9 hPa 26.0 mm 15.9°
2
1%
14:00
20°
1016.9 hPa 53.6 mm 14.9°
5
1%
20:00
18°
1019.8 hPa 58.1 mm 14.5°
4
1%
 06:28     21:03    Daglengte: 14:35 Vrijdag 13 Aug
02:00
13°
1023.3 hPa 58.6 mm 12.8°
2
0%
08:00
14°
1024.8 hPa 58.6 mm 12.5°
2
0%
14:00
21°
1024.8 hPa 58.6 mm 12.1°
4
0%
20:00
19°
1023.9 hPa 58.6 mm 14.1°
2
0%
 06:30     21:01    Daglengte: 14:31 Zaterdag 14 Aug
02:00
14°
1024.7 hPa 58.7 mm 11.4°
2
0%
08:00
15°
1024.2 hPa 58.7 mm 12.0°
2
0%
14:00
23°
1022.5 hPa 58.7 mm 14.6°
1
1%
20:00
21°
1020.8 hPa 58.7 mm 16.0°
1
0%
 06:31     20:59    Daglengte: 14:28 Zondag 15 Aug
02:00
16°
1020.3 hPa 58.7 mm 13.0°
2
1%
08:00
16°
1018.3 hPa 58.7 mm 13.0°
2
1%
14:00
20°
1014.4 hPa 0.5 mm 12.8°
3
66%
20:00
19°
1013.8 hPa 1.1 mm 13.1°
2
60%
 06:33     20:57    Daglengte: 14:24 Maandag 16 Aug
02:00
15°
1014.4 hPa 0.5 mm 12.1°
2
48%
08:00
15°
1014.3 hPa 0.4 mm 12.2°
3
53%
14:00
21°
1015.0 hPa 1.1 mm 12.7°
4
54%
20:00
19°
1015.3 hPa 0.5 mm 12.9°
2
57%
 06:34     20:55    Daglengte: 14:21 Dinsdag 17 Aug
02:00
15°
1016.4 hPa 0.7 mm 11.5°
2
52%
08:00
15°
1016.7 hPa 0.3 mm 11.9°
3
41%
14:00
21°
1016.8 hPa 0.7 mm 13.2°
4
48%
20:00
20°
1016.4 hPa 0.8 mm 13.3°
2
48%
 06:36     20:53    Daglengte: 14:17 Woensdag 18 Aug
02:00
15°
1017.1 hPa 0.5 mm 11.8°
2
45%
08:00
15°
1016.8 hPa 0.4 mm 12.5°
3
51%
14:00
21°
1016.4 hPa 0.6 mm 13.5°
3
53%
20:00
20°
1016.0 hPa 0.5 mm 13.8°
2
59%
 06:37     20:51    Daglengte: 14:14 Donderdag 19 Aug
02:00
15°
1017.0 hPa 0.4 mm 12.1°
2
43%
08:00
15°
1016.5 hPa 0.8 mm 12.6°
2
43%
14:00
22°
1015.6 hPa 1.5 mm 13.6°
3
49%
20:00
20°
1015.2 hPa 0.5 mm 13.3°
2
51%
 06:39     20:49    Daglengte: 14:10 Vrijdag 20 Aug
02:00
15°
1015.9 hPa 0.5 mm 11.8°
1
42%
08:00
15°
1015.7 hPa 0.3 mm 12.1°
2
44%
14:00
21°
1015.3 hPa 0.4 mm 12.9°
2
59%
  CAPE Lifted Index Hail Supercell Tornado SRH 3km CL BTM PRES CL TOP PRES Swiss DWD icon SMHI TS
 06:16     21:17    Daglengte: 15:01 Vandaag
15:00 239 J/kg 0.1 K 0 % 0 % 0 % 0 m²/s² 0 0 3.34 3
16:00 246 J/kg 0.0 K 0 % 0 % 0 % 0 m²/s² 0 0 3.63 2
17:00 233 J/kg 0.1 K 0 % 0 % 0 % 0 m²/s² 0 0 3.19 2
18:00 268 J/kg -0.1 K 0 % 0 % 0 % 0 m²/s² 0 0 2.84 2
19:00 198 J/kg 0.2 K 0 % 0 % 0 % 0 m²/s² 0 0 2.9 2
20:00 180 J/kg 0.1 K 0 % 0 % 0 % 0 m²/s² 0 0 2.8 3
21:00 167 J/kg -0.2 K 0 % 0 % 0 % 0 m²/s² 0 0 1.21 3
22:00 89 J/kg 0.2 K 0 % 0 % 0 % 0 m²/s² 0 0 0.59 3
23:00 7 J/kg 0.5 K 0 % 0 % 0 % 0 m²/s² 0 0 0.92 3
 06:18     21:16    Daglengte: 14:58 Morgen
00:00 0 J/kg 0.5 K 0 % 0 % 0 % 0 m²/s² 0 0 1.07 3
01:00 0 J/kg -0.2 K 0 % 0 % 0 % 0 m²/s² 0 0 -0.2 3
02:00 0 J/kg -1.3 K 0 % 0 % 0 % 0 m²/s² 0 0 -0.46 95
03:00 2 J/kg -1.1 K 0 % 0 % 0 % 0 m²/s² 0 0 -0.05 61
04:00 100 J/kg -0.4 K 0 % 0 % 0 % 0 m²/s² 0 0 0.65 3
05:00 134 J/kg -0.1 K 0 % 0 % 0 % 0 m²/s² 0 0 0.89 3
06:00 65 J/kg 1.3 K 0 % 0 % 0 % 0 m²/s² 0 0 4.99 3
07:00 79 J/kg 1.4 K 0 % 0 % 0 % 0 m²/s² 0 0 4.04 61
08:00 136 J/kg 0.7 K 0 % 0 % 0 % 0 m²/s² 0 0 3.25 3
09:00 102 J/kg 1.4 K 0 % 0 % 0 % 0 m²/s² 0 0 4.34 3
10:00 90 J/kg 1.6 K 0 % 0 % 0 % 0 m²/s² 0 0 4.63 80
11:00 110 J/kg 1.7 K 0 % 0 % 0 % 0 m²/s² 0 0 4.64 3
12:00 125 J/kg 1.4 K 0 % 0 % 0 % 0 m²/s² 0 0 4.52 2
13:00 139 J/kg 1.3 K 0 % 0 % 0 % 0 m²/s² 0 0 4.96 80
14:00 171 J/kg 1.0 K 0 % 0 % 0 % 0 m²/s² 0 0 4.93 2
15:00 212 J/kg 0.4 K 0 % 0 % 0 % 0 m²/s² 0 0 2.65 2
16:00 366 J/kg -0.9 K 0 % 0 % 0 % 0 m²/s² 0 0 1.95 2
17:00 331 J/kg -0.8 K 0 % 0 % 0 % 0 m²/s² 0 0 2.38 2
18:00 271 J/kg -0.3 K 0 % 0 % 0 % 0 m²/s² 0 0 3.03 2
19:00 248 J/kg 0.2 K 0 % 0 % 0 % 0 m²/s² 0 0 3.8 3
20:00 265 J/kg 0.1 K 0 % 0 % 0 % 0 m²/s² 0 0 3.25 1
21:00 222 J/kg 0.8 K 0 % 0 % 0 % 0 m²/s² 0 0 4.31 1
22:00 155 J/kg 2.0 K 0 % 0 % 0 % 0 m²/s² 0 0 5.69 1
23:00 134 J/kg 2.6 K 0 % 0 % 0 % 0 m²/s² 0 0 5.48 2
 06:19     21:14    Daglengte: 14:55 Zaterdag 07 Aug
00:00 86 J/kg 3.3 K 0 % 0 % 0 % 0 m²/s² 0 0 4.77 3
01:00 0 J/kg 3.2 K 0 % 0 % 0 % 0 m²/s² 0 0 6.08 2
02:00 0 J/kg 3.0 K 0 % 0 % 0 % 0 m²/s² 0 0 5.67 2
03:00 0 J/kg 3.5 K 0 % 0 % 0 % 0 m²/s² 0 0 6.47 2
04:00 1 J/kg 3.9 K 0 % 0 % 0 % 0 m²/s² 0 0 7.32 2
05:00 7 J/kg 4.0 K 0 % 0 % 0 % 0 m²/s² 0 0 7.42 2
06:00 0 J/kg 4.3 K 0 % 0 % 0 % 0 m²/s² 0 0 7.63 2
07:00 2 J/kg 3.7 K 0 % 0 % 0 % 0 m²/s² 0 0 6.43 2
08:00 0 J/kg 3.0 K 0 % 0 % 0 % 0 m²/s² 0 0 5.73 3
09:00 6 J/kg 2.1 K 0 % 0 % 0 % 0 m²/s² 0 0 4.92 2
10:00 41 J/kg 0.9 K 0 % 0 % 0 % 0 m²/s² 0 0 3.33 2
11:00 88 J/kg 0.3 K 0 % 0 % 0 % 0 m²/s² 0 0 2.79 2
12:00 156 J/kg -0.3 K 0 % 0 % 0 % 0 m²/s² 0 0 1.98 2
13:00 387 J/kg -1.2 K 0 % 0 % 0 % 0 m²/s² 0 0 0.69 2
14:00 470 J/kg -1.4 K 0 % 0 % 0 % 0 m²/s² 0 0 0.13 2
15:00 520 J/kg -1.3 K 0 % 0 % 0 % 0 m²/s² 0 0 0.2 3
16:00 444 J/kg -1.4 K 0 % 0 % 0 % 0 m²/s² 0 0 0.04 2
17:00 392 J/kg -1.3 K 0 % 0 % 0 % 0 m²/s² 0 0 0.59 3
18:00 286 J/kg -0.9 K 0 % 0 % 0 % 0 m²/s² 0 0 0.42 80
19:00 230 J/kg -0.9 K 0 % 0 % 0 % 0 m²/s² 0 0 0.06 80
20:00 273 J/kg -1.3 K 0 % 0 % 0 % 0 m²/s² 0 0 -0.34 80
21:00 402 J/kg -1.8 K 0 % 0 % 0 % 0 m²/s² 0 0 -0.63 80
22:00 196 J/kg -1.6 K 0 % 0 % 0 % 0 m²/s² 0 0 -0.34 80
23:00 246 J/kg -3.0 K 0 % 0 % 0 % 0 m²/s² 0 0 -1.05 2
 06:21     21:12    Daglengte: 14:51 Zondag 08 Aug
00:00 238 J/kg -1.1 K 0 % 0 % 0 % 0 m²/s² 0 0 0.16 2
01:00 95 J/kg -0.2 K 0 % 0 % 0 % 0 m²/s² 0 0 0.31 3
02:00 10 J/kg 0.8 K 0 % 0 % 0 % 0 m²/s² 0 0 1.7 61
03:00 53 J/kg 0.1 K 0 % 0 % 0 % 0 m²/s² 0 0 0.34 61
04:00 9 J/kg 0.3 K 0 % 0 % 0 % 0 m²/s² 0 0 0.42 61
05:00 97 J/kg -0.7 K 0 % 0 % 0 % 0 m²/s² 0 0 -0.1 3
06:00 34 J/kg -0.2 K 0 % 0 % 0 % 0 m²/s² 0 0 0.58 3
07:00 52 J/kg 0.3 K 0 % 0 % 0 % 0 m²/s² 0 0 0.93 3
08:00 33 J/kg 0.0 K 0 % 0 % 0 % 0 m²/s² 0 0 0.72 3
09:00 0 J/kg 0.0 K 0 % 0 % 0 % 0 m²/s² 0 0 13.83 3
Temp Baro Wind Neerslag
  EWN Forecast EWN WRFDA DWD ICON FMI HIRLAM MET Norway GFS
 06:16     21:17    Daglengte: 15:01 Vandaag
17:00 21.3° 1006.7 hPa 2.4 m/s 0.0 mm 21.5° 1006.2 hPa 2.8 m/s 0.1 mm 21.9° 1006.4 hPa 2.3 m/s -1.1 mm 21.3° 1006.7 hPa 3.0 m/s 0.0 mm 21.1° 1006.9 hPa 3.1 m/s
20:00 20.1° 1005.9 hPa 2.5 m/s 0.0 mm 21.1° 1005.2 hPa 3.8 m/s 0.9 mm 20.1° 1005.6 hPa 2.8 m/s 0.0 mm 20.5° 1006.0 hPa 2.3 m/s 0.0 mm 19.2° 1005.5 hPa 2.4 m/s
23:00 17.4° 1005.3 hPa 3.6 m/s 0.0 mm 17.6° 1004.0 hPa 4.3 m/s 1.0 mm 17.2° 1005.9 hPa 2.6 m/s 0.1 mm 18.2° 1005.2 hPa 3.5 m/s 0.0 mm 16.8° 1004.9 hPa 4.1 m/s
 06:18     21:16    Daglengte: 14:58 Morgen
02:00 16.1° 1003.4 hPa 4.5 m/s 1.3 mm 16.5° 1002.4 hPa 4.0 m/s 4.3 mm 15.9° 1003.6 hPa 4.5 m/s 1.2 mm 17.5° 1003.0 hPa 4.2 m/s 0.0 mm 15.8° 1003.4 hPa 6.3 m/s
05:00 16.0° 1002.1 hPa 4.2 m/s 0.0 mm 16.5° 1000.9 hPa 4.9 m/s 9.6 mm 15.5° 1002.5 hPa 3.8 m/s 1.8 mm 16.9° 1001.7 hPa 4.1 m/s 0.0 mm 15.8° 1002.7 hPa 6.5 m/s
08:00 15.9° 1003.0 hPa 4.7 m/s 1.8 mm 16.4° 1002.1 hPa 5.1 m/s 10.4 mm 15.7° 1003.4 hPa 4.3 m/s 0.3 mm 16.5° 1002.2 hPa 4.7 m/s 0.0 mm 15.3° 1003.5 hPa 5.9 m/s
11:00 17.1° 1003.9 hPa 6.2 m/s 2.0 mm 18.2° 1002.9 hPa 6.6 m/s 11.1 mm 17.3° 1004.4 hPa 6.2 m/s 0.4 mm 16.8° 1003.0 hPa 5.9 m/s 0.0 mm 16.8° 1004.5 hPa 7.8 m/s
14:00 18.0° 1004.5 hPa 6.8 m/s 2.5 mm 19.4° 1003.4 hPa 7.6 m/s 11.6 mm 19.5° 1004.9 hPa 6.7 m/s 0.5 mm 17.5° 1003.6 hPa 7.4 m/s 0.0 mm 19.1° 1004.9 hPa 9.2 m/s
17:00 18.8° 1005.0 hPa 6.2 m/s 0.0 mm 20.0° 1003.3 hPa 7.8 m/s 15.0 mm 20.5° 1005.3 hPa 5.7 m/s 0.0 mm 17.5° 1004.7 hPa 6.2 m/s 0.0 mm 19.4° 1005.2 hPa 7.3 m/s
20:00 17.9° 1005.5 hPa 3.6 m/s 0.0 mm 19.3° 1003.9 hPa 5.4 m/s 16.5 mm 18.8° 1005.5 hPa 2.0 m/s 0.0 mm 17.7° 1005.5 hPa 5.1 m/s 0.0 mm 17.3° 1005.9 hPa 5.1 m/s
23:00 15.8° 1006.6 hPa 3.3 m/s 0.0 mm 14.6° 1005.2 hPa 2.3 m/s 16.8 mm 14.8° 1005.9 hPa 1.1 m/s 0.0 mm 16.4° 1006.8 hPa 4.1 m/s 0.0 mm 14.2° 1006.5 hPa 2.9 m/s
 06:19     21:14    Daglengte: 14:55 Zaterdag 07 Aug
02:00 15.0° 1006.0 hPa 1.6 m/s 0.0 mm 13.8° 1004.5 hPa 2.8 m/s 16.8 mm 14.3° 1005.9 hPa 1.5 m/s 0.1 mm 15.6° 1006.6 hPa 2.6 m/s 0.0 mm 13.5° 1006.5 hPa 2.7 m/s
05:00 14.5° 1005.1 hPa 2.4 m/s 0.0 mm 12.5° 1003.8 hPa 3.2 m/s 16.8 mm 13.9° 1005.1 hPa 1.6 m/s 0.1 mm 15.7° 1006.0 hPa 2.2 m/s 0.0 mm 12.6° 1005.8 hPa 2.7 m/s
08:00 15.1° 1004.8 hPa 3.1 m/s 0.0 mm 14.6° 1003.9 hPa 2.7 m/s 16.8 mm 15.2° 1004.6 hPa 2.4 m/s 0.0 mm 15.2° 1005.9 hPa 3.1 m/s 0.0 mm 13.9° 1004.7 hPa 3.2 m/s
11:00 18.2° 1003.7 hPa 3.9 m/s 0.0 mm 17.7° 1003.2 hPa 2.6 m/s 16.8 mm 18.8° 1003.7 hPa 4.0 m/s 0.0 mm 16.8° 1004.0 hPa 5.0 m/s
14:00 19.4° 1002.5 hPa 4.3 m/s 2.4 mm 18.6° 1002.3 hPa 2.3 m/s 17.4 mm 20.6° 1002.7 hPa 4.6 m/s 0.0 mm 16.5° 1004.1 hPa 6.6 m/s
17:00 20.1° 1001.6 hPa 4.5 m/s 7.8 mm 21.3° 1001.2 hPa 4.9 m/s 18.6 mm 20.4° 1001.6 hPa 4.1 m/s 0.1 mm 19.3° 1003.5 hPa 6.9 m/s
20:00 17.6° 1001.7 hPa 4.1 m/s 6.2 mm 20.5° 1000.4 hPa 3.9 m/s 19.4 mm 17.2° 1001.7 hPa 3.8 m/s 1.7 mm 17.2° 1003.2 hPa 6.0 m/s
23:00 15.5° 1003.3 hPa 4.9 m/s 4.0 mm 15.9° 1001.4 hPa 5.6 m/s 19.5 mm 15.5° 1003.2 hPa 4.5 m/s 0.5 mm 14.5° 1004.3 hPa 5.5 m/s
 06:21     21:12    Daglengte: 14:51 Zondag 08 Aug
02:00 14.4° 1004.2 hPa 5.1 m/s 0.0 mm 13.9° 1002.3 hPa 5.0 m/s 19.7 mm 14.9° 1004.2 hPa 4.7 m/s 0.0 mm 13.5° 1005.2 hPa 5.9 m/s
05:00 14.2° 1004.8 hPa 6.3 m/s 0.0 mm 14.2° 1002.6 hPa 7.1 m/s 21.6 mm 14.6° 1004.7 hPa 6.3 m/s 0.2 mm 12.6° 1005.9 hPa 7.1 m/s
08:00 14.0° 1007.0 hPa 6.3 m/s 0.0 mm 14.0° 1004.6 hPa 6.9 m/s 24.9 mm 14.6° 1007.1 hPa 5.7 m/s 0.0 mm 13.5° 1006.6 hPa 8.1 m/s
11:00 15.8° 1009.1 hPa 6.3 m/s 0.0 mm 15.9° 1009.1 hPa 6.0 m/s 0.0 mm 14.7° 1009.1 hPa 8.5 m/s 12.6 mm
14:00 18.7° 1009.9 hPa 7.4 m/s 0.0 mm 18.8° 1009.8 hPa 7.2 m/s 0.0 mm 17.8° 1010.7 hPa 8.5 m/s 13.1 mm
17:00 18.7° 1012.6 hPa 7.9 m/s 13.9 mm 18.7° 1012.6 hPa 7.9 m/s 13.9 mm
20:00 16.9° 1013.8 hPa 5.0 m/s 14.5 mm 16.9° 1013.8 hPa 5.0 m/s 14.5 mm
23:00 13.1° 1015.2 hPa 3.4 m/s 14.5 mm 13.1° 1015.3 hPa 3.4 m/s 14.5 mm
 06:22     21:10    Daglengte: 14:48 Maandag 09 Aug
02:00 12.9° 1015.6 hPa 3.5 m/s 14.5 mm 12.9° 1015.6 hPa 3.5 m/s 14.5 mm
05:00 13.4° 1015.1 hPa 4.3 m/s 14.7 mm 13.4° 1015.1 hPa 4.3 m/s 14.7 mm
08:00 13.5° 1016.1 hPa 6.2 m/s 15.4 mm 13.5° 1016.1 hPa 6.2 m/s 15.4 mm
11:00 15.5° 1017.7 hPa 6.1 m/s 15.8 mm 15.5° 1017.7 hPa 6.1 m/s 15.8 mm
14:00 17.7° 1018.6 hPa 6.7 m/s 16.8 mm 17.7° 1018.6 hPa 6.7 m/s 16.8 mm
17:00 18.6° 1018.8 hPa 5.8 m/s 17.4 mm 18.6° 1018.8 hPa 5.8 m/s 17.4 mm
20:00 17.3° 1019.7 hPa 4.1 m/s 18.0 mm 17.3° 1019.7 hPa 4.1 m/s 18.0 mm
23:00 13.8° 1021.0 hPa 3.2 m/s 18.0 mm 13.8° 1021.0 hPa 3.2 m/s 18.0 mm
 06:24     21:09    Daglengte: 14:45 Dinsdag 10 Aug
02:00 12.8° 1021.7 hPa 3.1 m/s 18.0 mm 12.8° 1021.7 hPa 3.1 m/s 18.0 mm
05:00 11.6° 1021.7 hPa 3.3 m/s 18.0 mm 11.6° 1021.7 hPa 3.3 m/s 18.0 mm
08:00 13.0° 1022.4 hPa 3.0 m/s 18.0 mm 13.0° 1022.4 hPa 3.0 m/s 18.0 mm
11:00 18.4° 1022.5 hPa 3.9 m/s 18.0 mm 18.4° 1022.5 hPa 3.9 m/s 18.0 mm
14:00 21.3° 1021.6 hPa 2.9 m/s 18.3 mm 21.3° 1021.6 hPa 2.9 m/s 18.3 mm
17:00 21.1° 1020.9 hPa 3.2 m/s 18.7 mm 21.1° 1020.9 hPa 3.2 m/s 18.7 mm
20:00 18.8° 1020.5 hPa 1.9 m/s 18.8 mm 18.8° 1020.5 hPa 1.9 m/s 18.8 mm
23:00 15.5° 1020.9 hPa 1.9 m/s 18.8 mm 15.5° 1020.9 hPa 1.9 m/s 18.8 mm
 06:25     21:07    Daglengte: 14:42 Woensdag 11 Aug
02:00 13.7° 1020.6 hPa 1.7 m/s 18.8 mm 13.7° 1020.6 hPa 1.7 m/s 18.8 mm
05:00 13.2° 1019.5 hPa 1.8 m/s 18.8 mm 13.2° 1019.5 hPa 1.8 m/s 18.8 mm
08:00 15.2° 1019.1 hPa 1.6 m/s 18.8 mm 15.2° 1019.1 hPa 1.6 m/s 18.8 mm
11:00 20.2° 1018.5 hPa 1.8 m/s 18.8 mm 20.2° 1018.5 hPa 1.8 m/s 18.8 mm
14:00 23.3° 1017.2 hPa 1.4 m/s 18.8 mm 23.3° 1017.2 hPa 1.4 m/s 18.8 mm
17:00 24.0° 1015.7 hPa 0.7 m/s 18.8 mm 24.0° 1015.7 hPa 0.7 m/s 18.8 mm
20:00 21.5° 1015.4 hPa 0.8 m/s 18.9 mm 21.5° 1015.4 hPa 0.8 m/s 18.9 mm
23:00 18.3° 1015.2 hPa 2.0 m/s 18.9 mm 18.3° 1015.2 hPa 2.0 m/s 18.9 mm
 06:27     21:05    Daglengte: 14:38 Donderdag 12 Aug
02:00 18.4° 1014.1 hPa 2.3 m/s 18.9 mm 18.4° 1014.1 hPa 2.3 m/s 18.9 mm
05:00 16.6° 1013.3 hPa 2.2 m/s 20.4 mm 16.6° 1013.3 hPa 2.2 m/s 20.4 mm
08:00 16.5° 1014.0 hPa 2.1 m/s 25.0 mm 16.5° 1014.0 hPa 2.1 m/s 25.0 mm
11:00 18.4° 1015.9 hPa 1.6 m/s 26.0 mm 18.4° 1015.9 hPa 1.6 m/s 26.0 mm
14:00 20.0° 1016.9 hPa 5.2 m/s 27.6 mm 20.0° 1016.9 hPa 5.2 m/s 27.6 mm
20:00 17.8° 1019.8 hPa 4.0 m/s 29.2 mm 17.8° 1019.8 hPa 4.0 m/s 29.2 mm
 06:28     21:03    Daglengte: 14:35 Vrijdag 13 Aug
02:00 13.1° 1023.3 hPa 2.3 m/s 29.3 mm 13.1° 1023.3 hPa 2.3 m/s 29.3 mm
08:00 13.8° 1024.8 hPa 1.5 m/s 29.3 mm 13.8° 1024.8 hPa 1.5 m/s 29.3 mm
14:00 21.2° 1024.8 hPa 3.8 m/s 29.3 mm 21.2° 1024.8 hPa 3.8 m/s 29.3 mm
20:00 19.4° 1023.9 hPa 1.7 m/s 29.3 mm 19.4° 1023.9 hPa 1.7 m/s 29.3 mm
 06:30     21:01    Daglengte: 14:31 Zaterdag 14 Aug
02:00 13.9° 1024.7 hPa 1.6 m/s 29.3 mm 13.9° 1024.7 hPa 1.6 m/s 29.3 mm
08:00 14.9° 1024.2 hPa 1.6 m/s 29.3 mm 14.9° 1024.2 hPa 1.6 m/s 29.3 mm
14:00 23.3° 1022.5 hPa 0.9 m/s 29.3 mm 23.3° 1022.5 hPa 0.9 m/s 29.3 mm
20:00 21.4° 1020.8 hPa 1.4 m/s 29.3 mm 21.4° 1020.8 hPa 1.4 m/s 29.3 mm
 06:31     20:59    Daglengte: 14:28 Zondag 15 Aug
02:00 15.5° 1020.3 hPa 1.7 m/s 29.3 mm 15.5° 1020.3 hPa 1.7 m/s 29.3 mm
08:00 16.2° 1018.3 hPa 2.0 m/s 29.3 mm 16.2° 1018.3 hPa 2.0 m/s 29.3 mm
14:00 20.4° 1014.4 hPa 3.3 m/s 0.5 mm
20:00 18.8° 1013.8 hPa 1.9 m/s 1.1 mm
 06:33     20:57    Daglengte: 14:24 Maandag 16 Aug
02:00 15.0° 1014.4 hPa 2.2 m/s 0.5 mm
08:00 14.9° 1014.3 hPa 2.9 m/s 0.4 mm
14:00 20.7° 1015.0 hPa 4.2 m/s 1.1 mm
20:00 19.1° 1015.3 hPa 2.4 m/s 0.5 mm
 06:34     20:55    Daglengte: 14:21 Dinsdag 17 Aug
02:00 14.7° 1016.4 hPa 2.0 m/s 0.7 mm
08:00 14.7° 1016.7 hPa 2.8 m/s 0.3 mm
14:00 21.4° 1016.8 hPa 3.7 m/s 0.7 mm
20:00 19.5° 1016.4 hPa 2.0 m/s 0.8 mm
 06:36     20:53    Daglengte: 14:17 Woensdag 18 Aug
02:00 15.2° 1017.1 hPa 1.9 m/s 0.5 mm
08:00 15.4° 1016.8 hPa 2.8 m/s 0.4 mm
14:00 21.5° 1016.4 hPa 3.2 m/s 0.6 mm
20:00 19.6° 1016.0 hPa 1.7 m/s 0.5 mm
 06:37     20:51    Daglengte: 14:14 Donderdag 19 Aug
02:00 15.1° 1017.0 hPa 1.5 m/s 0.4 mm
08:00 15.1° 1016.5 hPa 1.9 m/s 0.8 mm
14:00 21.6° 1015.6 hPa 2.8 m/s 1.5 mm
20:00 19.5° 1015.2 hPa 1.5 m/s 0.5 mm
 06:39     20:49    Daglengte: 14:10 Vrijdag 20 Aug
02:00 14.8° 1015.9 hPa 1.2 m/s 0.5 mm
08:00 14.8° 1015.7 hPa 1.8 m/s 0.3 mm
14:00 20.9° 1015.3 hPa 1.9 m/s 0.4 mm
FMI Hirlam - 7.5 km EWN WRFDA - 12 km DWD ICON - 7 km GFS - 25 km Basiskaart






























































Updatetijd (Europe/Brussels) Resolutie Lengte Stap
FMI Hirlam 14:00, 20:00, 02:00, 08:00 7.5 km 49h 1h
EWN WRFDA 04:15, 10:15, 16:15, 22:15 12 km 73h 1h
DWD ICON 11:45, 17:45, 23:45, 05:45 7 km 75h 1h
GFS 14:15, 20:15, 02:15, 08:15 25 km 237h 3h
30+ mm
25-30 mm
20-25 mm
15-20 mm
10-15 mm
6-10 mm
4-6 mm
2-4 mm
1-2 mm
0.5-1 mm
0.2-0.5 mm
0.1-0.2 mm
30+ mm
25-30 mm
20-25 mm
15-20 mm
10-15 mm
6-10 mm
4-6 mm
2-4 mm
1-2 mm
0.5-1 mm
0.2-0.5 mm
0.1-0.2 mm
Sneeuwval
Natte sneeuw
Hagel
Vorst
30+ mm
25-30 mm
20-25 mm
15-20 mm
10-15 mm
6-10 mm
4-6 mm
2-4 mm
1-2 mm
0.5-1 mm
0.2-0.5 mm
0.1-0.2 mm
Sneeuwval
Natte sneeuw
Hagel
Vorst
Onweer
50 mm
40 mm
30 mm
26 mm
22 mm
18 mm
14 mm
10 mm
9 mm
8 mm
7 mm
6 mm
5 mm
4.5 mm
4 mm
3.5 mm
3 mm
2.5 mm
2 mm
1.5 mm
1 mm
0.8 mm
0.6 mm
0.4 mm
0.2 mm
0.05 mm
35°
30°
25°
20°
15°
10°
-5°
-10°
-15°
-20°
-25°
-30°
-35°
33> m/s
29 m/s
25 m/s
21 m/s
17 m/s
14 m/s
11 m/s
8 m/s
5 m/s
3 m/s
0 m/s
2600 J/kg
2400 J/kg
2200 J/kg
2000 J/kg
1800 J/kg
1600 J/kg
1400 J/kg
1200 J/kg
1000 J/kg
800 J/kg
600 J/kg
400 J/kg
200 J/kg
70 dBZ
65 dBZ
60 dBZ
55 dBZ
50 dBZ
45 dBZ
40 dBZ
35 dBZ
30 dBZ
25 dBZ
20 dBZ
15 dBZ
10 dBZ
5 dBZ
-1 K
-2 K
-3 K
-4 K
-5 K
-6 K
-7 K
-8 K
-9 K
950 m²/s²
900 m²/s²
850 m²/s²
800 m²/s²
750 m²/s²
700 m²/s²
650 m²/s²
600 m²/s²
550 m²/s²
500 m²/s²
450 m²/s²
400 m²/s²
350 m²/s²
300 m²/s²
250 m²/s²
200 m²/s²
150 m²/s²
100 m²/s²
46 m/s
44 m/s
42 m/s
40 m/s
38 m/s
36 m/s
34 m/s
32 m/s
30 m/s
28 m/s
26 m/s
24 m/s
22 m/s
20 m/s
16 m/s
12 m/s
8 m/s
4 m/s
30 m/s
28 m/s
26 m/s
24 m/s
22 m/s
20 m/s
18 m/s
16 m/s
14 m/s
12 m/s
10 m/s
8 m/s
6 m/s
4 m/s
2 m/s
3.0
2.8
2.6
2.4
2.2
2.0
1.8
1.6
1.4
1.2
1.0
0.8
0.6
0.4
0.2
15
14
13
12
11
10
9
8
7
6
5
4
3
2
1
90%
80%
70%
60%
50%
40%
30%
20%
10%
42
40
38
36
34
32
30
28
26
24
22
20
18
16
14
12
90+ cm
80-90 cm
70-80 cm
60-70 cm
50-60 cm
40-50 cm
30-40 cm
20-30 cm
10-20 cm
1-10 cm
Sneeuwval
Natte sneeuw
Regen
>120 mm
115 mm
110 mm
105 mm
100 mm
95 mm
90 mm
85 mm
80 mm
75 mm
70 mm
65 mm
60 mm
55 mm
50 mm
45 mm
45 mm
40 mm
35 mm
30 mm
25 mm
20 mm
15 mm
10 mm
5 mm
0.1 mm
960 hPa
880 hPa